Retour au catalogue

PRAETORIAN SDA_607

ActifMilitairePO
NORAD 65570·PAYLOAD·🇺🇸 United States

Lancé Sep 10, 2025 depuis Vandenberg Space Force Base

Loading…

Prochains Passages (prochaines 24 heures)

TLE

FraisSource: Space-Track

Époque: Sep 14, 2026, 02:25 UTC

1 65570U 25203F   26257.10121074  .00000170  00000-0  14259-3 0  9995
2 65570  81.3012 288.3616 0008018 316.2862  43.7659 13.83763925 51006

Suivez PRAETORIAN SDA_607 en temps réel avec AllMySat

Download on the App Store